Location: Unspecified
(0.0000°N, 0.0000°E)
Time: 06:02:01
(UTC+01:00)

Milstar 3 - Visible Passes

Search period start: 18 December 2017 00:00
Search period end: 28 December 2017 00:00
Orbit: 1097 x 5148 km, 28.2° (Epoch: 11 December)

Date Brightness Start Highest point End Pass type
(mag) Time Alt. Az. Time Alt. Az. Time Alt. Az.
18 Dec 5.8 01:06:42 10° WSW 01:20:33 23° SSW 01:29:22 10° SSE visible
18 Dec 5.7 20:51:50 10° WNW 21:25:05 79° SSW 21:45:28 10° SE visible
18 Dec 5.8 23:55:33 10° W 00:16:34 33° SSW 00:28:39 10° SSE visible
19 Dec 5.8 03:04:40 10° SSW 03:06:56 11° S 03:08:59 10° S visible
19 Dec 5.2 05:50:57 10° SSW 05:55:21 17° SSE 05:59:36 10° ESE visible
19 Dec 5.9 19:45:14 10° WNW 20:18:48 86° NNE 20:42:42 10° ESE visible
19 Dec 5.8 22:44:57 10° W 23:12:11 46° SSW 23:27:29 10° SE visible
20 Dec 5.9 01:54:41 10° SW 02:03:02 16° SSW 02:09:09 10° SSE visible
20 Dec 5.4 04:49:56 10° S 04:52:45 12° SSE 04:55:21 10° SE visible
20 Dec 6.1 18:39:48 10° NW 19:11:44 72° NNE 19:38:57 10° ESE visible
20 Dec 5.8 21:35:40 10° WNW 22:07:09 60° SSW 22:25:50 10° SE visible
21 Dec 6.0 00:43:36 10° WSW 00:58:51 23° SSW 01:08:29 10° SSE visible
21 Dec 5.6 03:47:19 10° SSW 03:49:35 11° S 03:51:38 10° SSE visible
21 Dec 4.5 06:30:07 10° SW 06:36:11 33° SSE 06:42:30 10° E visible
21 Dec 5.9 20:27:58 10° WNW 21:01:19 75° SSW 21:23:36 10° SE visible
21 Dec 6.0 23:31:57 10° W 23:54:19 33° SSW 00:07:27 10° SSE visible
22 Dec 5.8 02:40:54 10° SSW 02:45:54 13° S 02:49:57 10° SSE visible
22 Dec 5.0 05:28:48 10° SSW 05:34:16 21° SSE 05:39:11 10° ESE visible
22 Dec 6.0 19:21:44 10° WNW 19:54:41 90° SW 20:20:35 10° ESE visible
22 Dec 6.0 22:21:05 10° W 22:49:19 44° SSW 23:06:01 10° SE visible
23 Dec 6.0 01:31:39 10° SW 01:41:44 17° SSW 01:48:50 10° SSE visible
23 Dec 5.3 04:26:55 10° SSW 04:31:45 15° SSE 04:35:48 10° SE visible
23 Dec 6.1 21:11:50 10° WNW 21:43:41 57° SSW 22:04:05 10° SE visible
24 Dec 6.1 00:20:19 10° WSW 00:37:07 24° SSW 00:47:39 10° SSE visible
24 Dec 5.6 03:23:31 10° SSW 03:28:36 14° S 03:32:42 10° SSE visible
24 Dec 4.1 06:08:24 10° SW 06:15:05 40° SSE 06:21:26 10° E visible
24 Dec 6.1 20:04:23 10° WNW 20:37:21 71° SSW 21:01:34 10° SE visible
24 Dec 6.2 23:08:22 10° W 23:32:00 32° SSW 23:46:14 10° SE visible
25 Dec 5.8 02:17:25 10° SW 02:24:49 15° S 02:30:21 10° SSE visible
25 Dec 4.7 05:06:34 10° SSW 05:13:12 26° SSE 05:18:41 10° ESE visible
25 Dec 6.2 18:58:30 10° WNW 19:30:23 86° SSW 19:58:14 10° ESE visible
25 Dec 6.2 21:57:23 10° W 22:26:21 43° SSW 22:44:27 10° SE visible
26 Dec 6.0 01:08:19 10° SW 01:20:24 19° SSW 01:28:33 10° SSE visible
26 Dec 5.1 04:04:03 10° SSW 04:10:44 20° SSE 04:15:52 10° ESE visible
26 Dec 6.3 20:48:17 10° WNW 21:20:05 54° SSW 21:42:12 10° SE visible
26 Dec 6.2 23:56:54 10° WSW 00:15:20 25° SSW 00:26:51 10° SSE visible
27 Dec 5.5 03:00:05 10° SSW 03:07:35 18° S 03:13:04 10° SE visible
27 Dec 3.7 05:46:34 10° SW 05:54:01 49° SSE 06:00:26 10° ENE visible
27 Dec 6.3 19:41:06 10° WNW 20:13:14 68° SSW 20:39:20 10° SE visible
27 Dec 6.3 22:44:49 10° W 23:09:38 32° SSW 23:25:00 10° SE visible
